Change the Weather History Date:

Wednesday, August 1, 2012

  Actual Average Record
Temperature  
Mean Temperature 76 °F 77 °F  
Max Temperature 81 °F 86 °F 100 °F (1963)
Min Temperature 70 °F 69 °F 58 °F (1936)
Degree Days  
Heating Degree Days 0 0  
Month to date heating degree days 0 0  
Since 1 June heating degree days 14 17  
Since 1 July heating degree days 0 0  
Cooling Degree Days 11 12  
Month to date cooling degree days 11 12  
Year to date cooling degree days 882 710  
Since 1 June cooling degree days 749 634  
Growing Degree Days 25 (Base 50)    
Moisture  
Dew Point 70 °F    
Average Humidity 81    
Maximum Humidity 93    
Minimum Humidity 69    
Precipitation  
Precipitation 0.38 in 0.15 in 1.67 in (1971)
Month to date precipitation 0.38 0.15  
Year to date precipitation 20.71 27.82  
Snow  
Snow 0.00 in 0.00 in 0.00 in (2002)
Month to date snowfall 0.0 0.0  
Since 1 July snowfall 0.0 0.0  
Snow Depth 0.00 in    
Sea Level Pressure  
Sea Level Pressure 29.88 in    
Wind  
Wind Speed 4 mph (South)    
Max Wind Speed 15 mph    
Max Gust Speed 21 mph    
Visibility 9 miles    
Events Rain , Thunderstorm    
T = Trace of Precipitation, MM = Missing Value Source: NWS Daily Summary

Daily Weather History Graph

Daily Weather History Graph

Search for Another Location

Airport or City:

Trip Planner

Search our weather history database for the weather conditions in past years. The results will help you decide how hot, cold, wet, or windy it might be!

Date:

Astronomy

Aug. 01, 2012 Rise Set
Actual Time 5:53 AM EDT 8:11 PM EDT
Civil Twilight 5:23 AM EDT 8:42 PM EDT
Nautical Twilight 4:45 AM EDT 9:19 PM EDT
Astronomical Twilight 4:03 AM EDT 10:01 PM EDT
Moon 7:39 PM EDT (8/1) 5:20 AM EDT (8/1)
Length of Visible Light 15h 18m
Length of Day
14h 17m
Full, 100% of the Moon is Illuminated
Aug 1
Full
Aug 1
Full
Aug 9
Last Quarter
Aug 17
New
Aug 24
First Quarter

Hourly Weather History & Observations

Time (EDT) Temp. Heat Index Dew Point Humidity Pressure Visibility Wind Dir Wind Speed Gust Speed Precip Events Conditions
12:51 AM 73.0 °F - 69.1 °F 87% 29.93 in 10.0 mi South 6.9 mph - N/A   Mostly Cloudy
12:58 AM 73.4 °F - 68.0 °F 83% 29.92 in 10.0 mi South 8.1 mph - N/A   Overcast
1:09 AM 73.4 °F - 68.0 °F 83% 29.92 in 10.0 mi SSE 5.8 mph - N/A   Overcast
1:51 AM 73.0 °F - 68.0 °F 84% 29.92 in 10.0 mi South 6.9 mph - N/A   Overcast
2:51 AM 72.0 °F - 66.9 °F 84% 29.91 in 10.0 mi South 8.1 mph - N/A   Scattered Clouds
3:51 AM 71.1 °F - 66.9 °F 87% 29.90 in 10.0 mi SSW 5.8 mph - N/A   Scattered Clouds
4:51 AM 72.0 °F - 68.0 °F 87% 29.88 in 10.0 mi Variable 4.6 mph - N/A   Mostly Cloudy
5:46 AM 73.4 °F - 69.8 °F 88% 29.89 in 10.0 mi South 4.6 mph - N/A   Overcast
5:51 AM 73.0 °F - 69.1 °F 87% 29.89 in 10.0 mi SSW 6.9 mph - N/A   Overcast
6:38 AM 71.6 °F - 66.2 °F 83% 29.90 in 5.0 mi NNW 4.6 mph - 0.03 in Rain Light Rain
6:51 AM 70.0 °F - 66.9 °F 90% 29.90 in 9.0 mi Calm Calm - 0.03 in Rain Light Rain
6:55 AM 69.8 °F - 66.2 °F 88% 29.90 in 10.0 mi Calm Calm - 0.00 in Rain Light Rain
7:42 AM 71.6 °F - 69.8 °F 94% 29.91 in 10.0 mi Calm Calm - 0.00 in   Mostly Cloudy
7:51 AM 73.0 °F - 70.0 °F 90% 29.91 in 10.0 mi Calm Calm - 0.00 in   Mostly Cloudy
8:38 AM 73.4 °F - 71.6 °F 94% 29.90 in 7.0 mi Calm Calm - 0.01 in   Mostly Cloudy
8:51 AM 75.0 °F - 72.0 °F 90% 29.90 in 8.0 mi Calm Calm - 0.01 in   Mostly Cloudy
9:35 AM 75.2 °F - 71.6 °F 89% 29.90 in 9.0 mi Calm Calm - N/A   Mostly Cloudy
9:51 AM 75.9 °F - 71.1 °F 85% 29.91 in 9.0 mi West 3.5 mph - N/A   Overcast
10:20 AM 78.8 °F - 71.6 °F 78% 29.89 in 10.0 mi Calm Calm - N/A   Mostly Cloudy
10:51 AM 81.0 °F 84.9 °F 71.1 °F 72% 29.89 in 10.0 mi WNW 3.5 mph - N/A   Mostly Cloudy
11:51 AM 80.1 °F 83.2 °F 70.0 °F 71% 29.87 in 10.0 mi Calm Calm - N/A   Mostly Cloudy
12:07 PM 78.8 °F - 69.8 °F 74% 29.87 in 10.0 mi SE 9.2 mph - N/A Thunderstorm Thunderstorm
12:13 PM 77.0 °F - 69.8 °F 78% 29.87 in 10.0 mi SE 11.5 mph 18.4 mph N/A Thunderstorm Thunderstorm
12:32 PM 75.2 °F - 68.0 °F 78% 29.87 in 9.0 mi ESE 6.9 mph - 0.00 in Rain , Thunderstorm Light Thunderstorms and Rain
12:51 PM 75.0 °F - 72.0 °F 90% 29.87 in 9.0 mi SE 9.2 mph - 0.02 in Rain , Thunderstorm Thunderstorms and Rain
1:00 PM 73.4 °F - 71.6 °F 94% 29.88 in 6.0 mi SE 12.7 mph - 0.01 in Rain , Thunderstorm Light Thunderstorms and Rain
1:10 PM 73.4 °F - 71.6 °F 94% 29.88 in 4.0 mi South 11.5 mph 20.7 mph 0.03 in Rain Heavy Rain
1:17 PM 73.4 °F - 71.6 °F 94% 29.88 in 3.0 mi South 11.5 mph - 0.09 in Rain , Thunderstorm Heavy Thunderstorms and Rain
1:51 PM 70.0 °F - 68.0 °F 93% 29.87 in 3.0 mi South 10.4 mph - 0.19 in Rain Light Rain
1:54 PM 69.8 °F - 68.0 °F 94% 29.87 in 3.0 mi South 9.2 mph - 0.02 in Rain , Thunderstorm Light Thunderstorms and Rain
2:37 PM 73.4 °F - 69.8 °F 88% 29.86 in 3.0 mi SSE 3.5 mph - 0.06 in Rain Light Rain
2:51 PM 73.9 °F - 71.1 °F 91% 29.86 in 3.0 mi Calm Calm - 0.06 in Rain Light Rain
3:51 PM 75.0 °F - 71.1 °F 87% 29.86 in 10.0 mi Calm Calm - 0.00 in Rain Light Rain
4:31 PM 73.4 °F - 71.6 °F 94% 29.87 in 10.0 mi Calm Calm - 0.00 in Rain Light Rain
4:51 PM 73.9 °F - 72.0 °F 93% 29.86 in 10.0 mi West 8.1 mph - 0.00 in Rain Light Rain
5:37 PM 73.4 °F - 71.6 °F 94% 29.84 in 9.0 mi SW 3.5 mph - 0.05 in Rain Light Rain
5:51 PM 73.9 °F - 72.0 °F 93% 29.85 in 10.0 mi West 5.8 mph - 0.06 in Rain Light Rain
6:09 PM 73.4 °F - 71.6 °F 94% 29.85 in 10.0 mi West 4.6 mph - 0.01 in Rain Light Rain
6:51 PM 73.9 °F - 71.1 °F 91% 29.85 in 10.0 mi SE 3.5 mph - 0.01 in   Overcast
7:51 PM 73.9 °F - 71.1 °F 91% 29.85 in 10.0 mi Calm Calm - N/A   Mostly Cloudy
8:51 PM 73.9 °F - 71.1 °F 91% 29.86 in 10.0 mi Calm Calm - N/A   Mostly Cloudy
9:51 PM 73.0 °F - 70.0 °F 90% 29.86 in 10.0 mi South 3.5 mph - N/A   Overcast
10:51 PM 73.4 °F - 69.8 °F 88% 29.85 in 10.0 mi Calm Calm - N/A   Overcast
11:51 PM 73.0 °F - 70.0 °F 90% 29.86 in 10.0 mi WNW 3.5 mph - N/A   Overcast